Weather History for KLVK - January, 2012

Change the Weather History Date:

Sunday, January 29, 2012

  Actual Average Record
Temperature  
Mean Temperature 51 °F 48 °F  
Max Temperature 65 °F 57 °F 69 °F (1931)
Min Temperature 36 °F 38 °F 24 °F (1979)
Degree Days  
Heating Degree Days 14 17  
Month to date heating degree days 461 535  
Since 1 July heating degree days 1471 1566  
Cooling Degree Days 0 0  
Month to date cooling degree days 0 0  
Year to date cooling degree days 0 0  
Moisture  
Dew Point 40 °F    
Average Humidity 65    
Maximum Humidity 86    
Minimum Humidity 44    
Precipitation  
Precipitation 0.00 in 0.08 in 0.84 in (1981)
Month to date precipitation 1.64 2.85  
Year to date precipitation 1.64 2.85  
Since 1 July precipitation 3.55 8.66  
Sea Level Pressure  
Sea Level Pressure 30.22 in    
Wind  
Wind Speed 1 mph (ENE)    
Max Wind Speed 13 mph    
Max Gust Speed 16 mph    
Visibility 10 miles    
Events      
T = Trace of Precipitation, MM = Missing Value Source: NWS Daily Summary

Daily Weather History Graph

Daily Weather History Graph

Search for Another Location

Airport or City:

Trip Planner

Search our weather history database for the weather conditions in past years. The results will help you decide how hot, cold, wet, or windy it might be!

Date:

Astronomy

Jan. 29, 2012 Rise Set
Actual Time 7:13 AM PST 5:27 PM PST
Civil Twilight 6:46 AM PST 5:55 PM PST
Nautical Twilight 6:14 AM PST 6:26 PM PST
Astronomical Twilight 5:43 AM PST 6:57 PM PST
Moon 10:16 AM PST (1/29) No Moon Set
Length of Visible Light 11h 09m
Length of Day
10h 13m
Waxing Crescent, 37% of the Moon is Illuminated
Jan 29
Waxing Crescent
Jan 30
First Quarter
Feb 7
Full
Feb 14
Last Quarter
Feb 21
New

Hourly Weather History & Observations

Time (PST) Temp. Windchill Dew Point Humidity Pressure Visibility Wind Dir Wind Speed Gust Speed Precip Events Conditions
12:53 AM 41.0 °F - 37.0 °F 86% 30.28 in 10.0 mi Calm Calm - N/A   Clear
1:53 AM 39.9 °F - 36.0 °F 86% 30.28 in 10.0 mi Calm Calm - N/A   Clear
2:53 AM 39.9 °F - 35.1 °F 83% 30.28 in 10.0 mi Calm Calm - N/A   Clear
3:53 AM 37.0 °F - 34.0 °F 89% 30.28 in 10.0 mi Calm Calm - N/A   Clear
4:53 AM 37.9 °F - 34.0 °F 86% 30.27 in 10.0 mi Calm Calm - N/A   Clear
5:53 AM 37.9 °F - 34.0 °F 86% 30.28 in 8.0 mi Calm Calm - N/A   Clear
6:53 AM 37.0 °F - 34.0 °F 89% 30.27 in 10.0 mi Calm Calm - N/A   Clear
7:53 AM 37.0 °F - 34.0 °F 89% 30.29 in 8.0 mi Calm Calm - N/A   Clear
9:53 AM 46.9 °F - 39.9 °F 77% 30.27 in 10.0 mi Calm Calm - N/A   Clear
10:53 AM 55.9 °F - 44.1 °F 64% 30.27 in 10.0 mi NNE 9.2 mph - N/A   Clear
11:53 AM 60.1 °F - 43.0 °F 53% 30.25 in 10.0 mi ENE 8.1 mph - N/A   Clear
12:53 PM 61.0 °F - 42.1 °F 50% 30.21 in 10.0 mi ENE 5.8 mph - N/A   Clear
1:53 PM 63.0 °F - 42.1 °F 46% 30.19 in 10.0 mi Calm Calm - N/A   Clear
2:53 PM 64.0 °F - 44.1 °F 48% 30.17 in 10.0 mi East 4.6 mph - N/A   Clear
3:53 PM 64.0 °F - 43.0 °F 46% 30.15 in 10.0 mi Calm Calm - N/A   Clear
4:53 PM 62.1 °F - 43.0 °F 50% 30.14 in 10.0 mi Calm Calm - N/A   Clear
6:53 PM 54.0 °F - 43.0 °F 66% 30.14 in 10.0 mi Calm Calm - N/A   Clear
7:53 PM 51.1 °F - 43.0 °F 74% 30.15 in 10.0 mi Calm Calm - N/A   Clear
9:53 PM 48.9 °F - 43.0 °F 80% 30.16 in 10.0 mi Calm Calm - N/A   Clear
10:53 PM 48.0 °F - 43.0 °F 83% 30.16 in 9.0 mi Calm Calm - N/A   Clear
11:53 PM 43.0 °F 40.3 °F 39.9 °F 89% 30.15 in 8.0 mi ENE 4.6 mph - N/A   Clear